Location: ??
(35.4824°N, 139.4679°E)
Time: 19:52:36
(UTC+00:00)

ISS - Visible Passes

Search period start: 18 January 2021 00:00
Search period end: 28 January 2021 00:00
Orbit: 418 x 419 km, 51.6° (Epoch: 19 January)

Date Brightness Start Highest point End Pass type
(mag) Time Alt. Az. Time Alt. Az. Time Alt. Az.
18 Jan -2.0 08:19:50 10° S 08:22:16 19° SE 08:24:42 10° E visible
18 Jan -2.1 09:55:44 10° WSW 09:58:09 31° WNW 09:58:09 31° WNW visible
19 Jan -3.5 09:07:46 10° WSW 09:11:05 64° NW 09:12:44 27° NE visible
20 Jan -3.7 08:20:03 10° SW 08:23:22 67° SE 08:26:43 10° NE visible
20 Jan -1.2 09:58:21 10° WNW 10:00:10 15° NW 10:00:10 15° NW visible
21 Jan -1.8 09:09:48 10° W 09:12:33 23° NNW 09:14:35 14° NNE visible
22 Jan -2.5 08:21:32 10° WSW 08:24:40 36° NW 08:27:49 10° NNE visible
23 Jan -1.0 09:13:05 10° NW 09:14:12 11° NNW 09:15:18 10° N visible
24 Jan -1.3 08:24:03 10° WNW 08:26:10 16° NNW 08:28:19 10° NNE visible
